Theta_e
353 353 352 353 353 352 352 352 353 354 354 353 353 352 351 351 351 350 354 357 350 343 342 340 340 342 340 338 335 331 330 333 337 340 344 349 350 350 351 351 352 353 354 353 352 352 352 352 354 354 350 345 345 345 343 343 343 344 344 344 346 346 345
352 352 352 352 352 352 352 352 352 354 354 353 353 353 352 352 352 351 355 356 350 344 343 341 341 344 344 343 341 338 333 331 332 335 341 348 349 349 351 351 350 351 353 353 353 353 351 349 349 352 350 346 346 346 343 344 344 344 345 344 344 346 345
350 351 352 351 352 354 353 352 353 353 352 352 352 353 353 352 352 352 355 357 350 344 344 343 342 343 344 344 344 343 340 335 332 331 338 347 348 348 350 351 350 350 351 352 352 353 351 348 344 344 345 347 349 347 343 344 345 343 344 343 344 347 344
348 350 349 349 351 353 353 353 353 353 353 353 352 353 353 353 353 354 355 356 350 345 344 344 343 343 344 344 344 344 343 341 337 333 337 346 349 349 350 350 350 349 350 351 351 352 352 350 346 341 341 344 347 348 346 347 347 344 342 343 344 345 345
346 348 348 348 349 350 353 353 353 353 353 353 353 353 354 353 354 354 355 356 354 350 347 345 344 344 343 344 344 345 344 343 342 338 339 344 349 349 349 349 349 348 349 350 350 351 351 351 349 343 339 339 342 347 347 346 347 345 342 343 344 346 349
344 346 346 347 347 348 352 353 353 354 352 352 352 352 353 353 353 354 354 356 357 357 354 352 351 348 344 343 345 346 345 344 345 342 340 341 345 348 349 348 348 348 348 348 349 350 349 350 350 348 345 343 344 349 350 348 349 350 347 344 345 348 353
342 344 345 346 346 347 349 352 354 354 353 352 351 351 352 352 352 353 353 355 356 357 357 355 356 354 349 345 346 348 346 344 345 344 342 341 341 344 348 349 348 348 348 348 348 350 349 348 349 350 350 350 349 351 352 352 352 353 352 347 344 345 350
339 341 342 344 345 346 347 350 351 353 354 353 351 352 352 351 352 352 352 354 354 354 355 355 355 356 355 350 347 349 347 345 346 344 344 346 343 341 345 348 347 346 347 348 349 349 350 350 348 349 350 351 351 350 351 354 353 352 353 351 346 344 349
338 339 339 341 343 345 346 346 348 350 352 352 353 354 353 351 352 352 351 352 353 352 353 354 354 355 357 355 350 348 347 348 350 347 345 349 348 345 345 346 346 344 343 345 348 348 348 349 349 349 348 348 349 348 347 351 351 349 352 354 351 346 349
337 337 337 338 339 342 344 345 346 347 349 350 352 353 353 352 351 352 352 350 351 352 352 353 353 354 356 357 354 350 347 347 351 351 350 350 350 348 347 347 347 346 341 340 344 347 347 347 348 350 348 344 345 342 340 343 345 345 347 351 352 348 347
336 336 337 337 337 338 340 343 344 344 345 347 348 349 351 352 351 352 352 351 350 351 351 351 352 352 356 358 358 356 353 349 350 353 353 352 350 348 347 346 345 347 346 343 342 344 346 346 346 349 349 344 338 336 335 337 339 341 345 349 351 349 348
335 335 335 336 336 336 336 339 342 343 343 343 345 347 349 350 350 351 352 353 352 351 351 352 352 352 354 356 357 358 357 355 353 353 353 352 350 348 346 346 344 345 347 347 345 343 344 346 346 345 344 340 334 333 333 333 335 338 341 347 350 349 348
334 334 334 334 335 334 335 336 338 341 342 342 344 346 347 348 348 349 350 351 351 351 352 352 352 353 353 354 355 356 356 357 357 355 353 353 352 349 346 346 345 343 344 347 347 345 342 344 347 344 339 334 331 335 335 331 332 335 337 342 349 350 349
332 333 332 333 333 333 334 334 334 336 338 340 342 345 346 347 347 348 349 350 350 350 350 350 350 352 353 353 354 354 355 357 358 357 356 354 353 352 349 347 346 345 344 344 346 347 344 342 345 347 343 337 330 332 339 337 331 331 334 337 344 348 349
331 331 332 332 332 332 332 333 334 334 333 335 338 342 344 346 346 347 348 348 349 348 349 350 350 350 352 352 352 354 356 357 358 358 358 356 355 354 352 350 348 347 345 345 345 346 346 343 343 345 348 346 338 332 337 342 339 331 330 334 338 340 345
331 331 331 331 331 332 332 332 333 333 332 332 333 337 340 343 345 346 346 347 348 348 349 351 351 350 350 351 352 354 357 357 358 358 358 358 357 356 356 353 352 350 347 347 347 346 346 345 344 344 346 349 348 341 337 341 344 339 331 330 333 334 337
331 330 330 331 331 331 332 332 332 332 332 331 330 332 335 338 341 343 345 347 348 348 348 350 351 351 350 351 352 353 356 358 358 358 358 358 357 357 357 355 354 353 351 349 349 348 348 348 347 345 344 346 350 349 346 342 342 341 334 329 330 331 333
331 331 331 330 330 331 331 331 331 332 332 331 330 330 332 334 336 338 340 344 347 348 348 348 350 350 351 352 351 352 353 355 358 359 358 358 357 357 356 355 355 355 354 353 353 352 351 351 351 349 347 345 345 349 351 348 344 340 335 329 327 328 330
329 330 330 330 330 330 330 330 330 331 332 331 330 330 330 331 333 334 336 338 341 343 345 347 349 349 350 350 351 352 352 352 356 358 358 357 357 357 357 356 355 354 354 354 355 355 355 354 353 353 352 349 347 346 348 350 349 345 337 330 326 326 327
327 328 328 328 329 330 330 329 329 330 331 331 330 330 330 331 331 333 335 336 337 337 337 340 344 347 349 350 350 351 353 354 355 355 356 357 358 358 358 358 357 357 356 356 355 356 357 355 354 354 353 351 350 349 348 349 351 350 345 338 331 327 325
326 326 326 326 327 329 329 328 328 328 330 330 330 329 330 330 330 332 335 336 337 337 335 335 337 340 345 347 348 348 350 353 354 354 355 356 357 357 357 357 358 358 357 357 356 356 357 357 356 355 353 351 350 350 351 350 350 351 351 349 342 336 331
323 323 324 324 324 325 327 327 327 327 328 329 330 329 329 329 328 330 333 335 336 337 337 336 334 335 338 342 347 348 348 349 352 354 356 356 356 356 356 356 357 358 357 357 356 356 355 356 357 357 356 354 352 351 352 352 351 351 351 352 351 348 344
322 321 322 322 321 323 324 324 324 326 327 328 329 328 328 328 327 328 331 333 333 335 336 335 334 334 334 337 341 346 347 348 350 352 354 356 356 356 356 356 356 356 357 357 357 355 353 354 355 356 357 357 356 355 355 353 353 353 352 351 351 351 350
321 321 321 321 321 322 323 321 321 323 325 327 327 327 327 328 327 326 329 330 330 333 334 333 331 332 333 334 335 338 342 343 345 348 350 353 354 355 355 355 355 355 355 355 356 354 353 353 352 353 355 357 357 357 356 355 355 355 354 352 351 350 349
320 320 320 320 321 322 322 321 321 322 323 324 326 326 326 328 327 326 326 326 327 331 332 328 326 327 330 332 333 334 336 336 337 339 342 345 348 351 353 354 355 355 355 355 355 353 353 353 352 350 352 354 355 356 356 356 356 357 356 354 352 351 350
319 320 319 319 320 321 320 320 321 322 321 321 323 324 325 327 327 327 325 321 323 330 329 324 322 324 326 328 331 332 334 335 333 332 334 336 339 342 347 351 353 354 355 355 355 354 354 354 355 354 352 352 352 353 353 354 355 356 357 357 355 353 351
319 320 319 320 320 320 320 321 322 321 321 321 322 323 325 327 327 328 326 322 323 327 326 321 319 321 323 325 327 328 333 336 335 332 331 332 333 334 337 342 347 352 354 354 355 355 355 354 355 355 354 353 353 352 352 352 352 353 355 356 357 357 356
319 320 320 320 320 320 320 321 321 321 322 322 321 322 324 325 326 327 327 326 326 326 322 318 318 319 320 322 324 326 330 333 335 335 334 333 332 331 331 332 336 344 350 351 353 355 355 355 355 354 353 354 354 353 353 353 352 351 350 350 353 356 357
320 320 320 319 319 320 321 321 321 322 322 322 322 322 322 323 325 326 327 328 328 326 322 318 316 317 317 319 322 323 325 328 332 336 338 337 334 331 330 329 328 333 341 347 349 351 354 355 355 355 355 355 355 355 354 354 353 354 352 350 350 351 353
319 319 319 319 319 320 320 320 321 321 322 322 323 323 323 323 324 326 327 328 328 327 325 321 319 318 318 318 318 320 324 328 329 331 336 339 335 332 332 331 329 329 335 341 343 346 350 352 354 356 356 356 356 355 354 353 353 354 355 354 354 353 351
318 318 318 319 319 319 319 319 320 320 321 321 322 323 324 324 324 326 327 328 328 327 326 326 325 323 320 319 318 319 323 327 327 330 335 337 335 334 335 334 333 331 333 339 343 346 348 349 352 355 356 356 356 356 354 354 354 354 354 355 355 355 354
317 317 317 317 318 318 318 318 319 319 320 320 321 322 323 324 324 325 326 327 328 328 327 327 326 324 322 322 321 320 322 326 328 330 333 333 334 336 337 337 337 335 332 334 340 345 350 351 351 354 356 357 357 356 355 355 354 355 355 355 355 354 354
315 316 316 316 316 317 317 317 318 318 319 319 320 321 321 322 323 324 324 325 326 327 327 327 326 325 324 324 324 322 323 326 328 327 327 330 334 336 337 338 339 337 335 332 333 338 346 350 352 354 355 356 357 357 357 357 356 356 356 355 354 352 352
314 315 315 315 315 316 316 316 317 317 318 318 319 320 320 321 323 324 324 324 325 326 326 326 326 325 325 324 324 324 325 327 328 326 325 328 330 331 334 337 338 338 336 333 331 331 335 342 349 352 354 355 356 356 356 356 357 357 356 354 353 353 353
313 313 314 314 314 315 315 316 316 317 317 318 318 319 320 321 321 322 323 324 324 325 325 325 325 325 325 324 325 327 327 327 327 325 323 322 323 325 329 333 335 336 335 332 330 330 330 333 339 342 345 349 353 354 355 355 355 356 355 354 354 355 355
313 313 313 313 314 315 315 316 316 317 317 318 318 319 319 320 321 322 322 323 324 324 324 324 324 324 324 324 326 327 327 326 325 324 323 321 321 321 323 326 329 332 332 330 329 330 330 330 331 332 334 339 344 349 352 353 353 353 354 354 356 357 357
312 313 313 314 314 315 315 315 316 316 316 317 318 318 319 320 320 321 322 322 323 323 323 323 323 323 323 324 325 325 325 324 325 325 325 325 323 321 320 322 324 326 328 329 329 329 329 329 329 330 332 333 335 338 341 343 344 345 346 349 352 355 357
313 313 314 314 315 315 315 315 315 316 316 317 317 318 319 319 320 321 321 322 322 323 323 323 323 322 322 322 323 323 323 323 324 325 325 325 325 323 321 320 321 323 325 327 328 329 328 327 328 328 329 332 334 334 335 335 336 337 338 340 343 346 349
Wind_Speed
11 9 10 14 15 14 13 15 17 16 17 20 21 22 23 23 23 23 24 26 26 26 26 25 23 22 21 21 20 20 20 20 19 19 18 16 15 15 14 14 13 12 12 11 11 11 10 11 11 10 8 8 7 7 6 6 6 7 8 8 9 9 9
11 10 6 5 10 12 12 16 18 15 17 19 19 20 21 22 23 23 24 26 27 26 27 26 25 24 22 21 20 19 20 21 21 20 19 18 17 16 15 15 14 14 13 12 12 12 12 11 11 11 10 9 8 8 7 7 7 7 7 8 9 9 9
9 9 7 6 3 5 9 15 17 16 17 19 19 20 20 21 23 24 24 26 27 26 26 27 26 25 24 22 21 20 19 20 21 21 20 19 19 17 16 15 15 14 14 14 13 12 13 13 12 12 11 10 10 9 8 8 7 7 7 8 8 9 9
9 8 8 7 5 3 3 9 13 14 17 18 18 18 18 20 20 22 24 25 26 26 26 27 27 26 25 24 23 22 20 20 20 22 21 19 18 18 17 16 16 15 15 15 14 13 13 13 13 13 12 11 11 11 10 9 8 8 7 7 8 9 9
8 8 9 8 7 7 6 4 5 11 18 20 17 16 18 19 20 22 23 23 24 25 26 26 26 26 26 25 24 23 22 21 20 21 22 21 20 19 18 18 17 16 16 15 15 15 15 15 15 14 13 13 12 12 11 11 10 9 8 8 8 9 9
11 9 8 9 8 7 9 8 4 6 16 21 18 16 17 19 20 21 22 21 22 22 24 25 24 26 27 25 25 24 23 22 21 21 21 22 22 21 20 19 18 17 17 17 16 16 17 16 16 15 15 13 13 12 12 12 11 11 10 9 9 9 9
14 13 11 9 7 7 8 8 8 5 7 15 16 15 16 17 18 20 21 21 21 21 23 24 24 25 27 27 26 25 24 22 21 21 21 22 24 23 21 20 20 19 18 18 18 17 17 17 17 17 16 15 14 14 13 13 13 13 12 11 10 10 10
15 15 14 12 10 8 7 7 8 13 11 8 11 13 16 17 16 17 18 19 20 21 22 24 25 25 26 27 27 26 25 23 22 21 21 21 23 24 23 22 22 22 20 19 19 19 18 18 18 18 17 16 16 16 15 15 15 15 14 13 12 11 11
16 17 15 15 14 11 9 8 7 13 18 16 10 6 14 20 19 15 15 14 15 19 22 23 23 24 26 27 27 27 26 24 23 22 22 21 22 23 23 23 23 23 23 21 20 20 21 19 18 19 19 18 18 18 18 18 17 16 16 15 14 13 13
17 18 17 17 17 15 14 12 8 9 13 15 13 8 8 17 16 13 14 15 14 15 19 21 21 23 26 25 25 25 26 26 24 23 23 22 22 22 23 23 22 23 25 24 21 20 21 21 20 20 21 21 20 20 20 20 19 18 18 17 17 16 15
16 17 18 19 19 19 19 17 13 10 9 8 9 8 9 12 11 7 6 10 16 18 19 19 20 23 24 23 22 23 24 26 25 24 24 23 23 23 23 23 23 22 24 24 23 22 21 22 23 22 22 23 22 21 21 21 21 20 19 18 18 17 17
14 16 18 19 21 21 23 22 18 15 13 10 6 6 8 9 8 8 5 2 6 13 18 19 19 21 24 22 21 22 22 24 25 25 25 24 24 23 23 23 23 23 23 23 24 23 22 22 23 24 25 25 24 23 23 22 22 22 22 20 19 19 18
14 15 16 18 20 20 22 23 21 19 16 14 10 5 5 5 4 6 7 7 4 4 10 15 15 16 19 20 20 20 21 22 24 25 25 25 25 24 24 24 24 23 23 23 24 24 24 23 23 25 27 27 26 25 24 24 24 24 24 23 21 20 19
14 15 16 17 18 20 21 22 22 20 18 16 13 8 3 5 6 4 4 11 13 8 7 10 12 10 12 15 18 18 19 21 22 22 23 24 25 25 25 24 24 25 24 23 24 25 25 25 24 25 26 27 28 27 25 26 26 26 26 26 24 22 20
14 15 16 17 18 18 19 19 20 20 19 18 15 13 10 5 6 6 4 7 13 13 11 10 10 12 12 15 17 15 16 19 20 20 21 22 24 25 26 26 25 25 25 25 25 25 25 25 25 25 25 26 28 29 28 27 27 28 28 28 28 26 23
14 15 16 16 16 17 17 18 18 19 20 20 18 14 13 11 7 4 5 7 9 12 13 11 11 12 14 15 16 14 15 17 18 19 20 21 22 24 26 26 26 26 26 27 26 26 25 26 26 26 26 26 27 29 29 29 28 29 30 30 30 29 27
13 14 15 15 15 16 16 17 18 19 19 20 20 17 14 12 11 8 4 6 7 7 10 11 12 12 12 13 16 15 14 16 18 20 20 21 22 23 24 25 26 26 27 28 28 28 28 27 27 27 27 27 27 28 29 30 30 31 32 32 31 31 30
12 13 13 14 15 15 16 16 17 18 18 18 19 18 17 15 12 10 9 3 4 5 6 9 12 14 14 14 17 19 18 17 17 19 22 22 22 23 24 24 24 26 27 28 29 29 30 29 29 29 28 28 28 28 29 30 31 33 35 35 33 32 32
10 11 12 13 14 14 15 15 15 16 16 16 17 17 16 16 14 12 13 11 5 1 3 5 9 14 17 15 17 20 21 20 20 19 20 21 21 21 22 23 24 25 26 27 28 28 30 32 31 31 31 30 30 29 29 29 31 33 36 37 36 34 33
8 10 11 12 13 13 14 14 15 15 15 15 15 15 15 15 15 14 14 14 12 9 7 6 5 10 15 17 17 18 17 18 21 22 20 19 19 20 21 22 23 24 24 25 26 27 29 31 32 32 33 34 33 32 30 30 30 32 34 36 37 36 35
7 9 10 11 12 12 12 13 14 14 14 14 14 14 14 14 14 14 14 14 13 13 12 11 8 5 9 15 19 20 18 17 16 18 20 20 19 20 21 21 22 23 23 23 23 25 27 29 30 31 33 35 36 35 34 32 31 32 33 34 36 36 36
7 8 9 9 10 11 11 12 13 14 13 14 13 13 13 13 13 14 14 13 13 13 14 13 11 8 6 8 12 18 21 20 18 17 18 19 20 20 21 21 22 22 22 22 23 23 25 26 28 29 30 32 34 35 35 34 33 34 35 35 35 35 35
6 7 8 8 9 9 10 11 12 12 12 12 12 13 13 12 12 13 13 13 14 13 13 13 11 10 9 7 7 11 16 20 22 22 21 18 17 18 19 21 22 21 20 22 24 24 24 24 24 24 26 28 30 31 33 33 33 34 36 38 38 37 37
6 7 8 8 9 9 9 11 12 11 11 11 11 13 14 13 13 13 13 13 13 13 13 13 12 11 10 8 7 8 11 14 18 22 23 22 19 16 16 18 21 22 21 21 21 23 25 27 26 24 23 24 26 28 30 30 30 31 34 37 38 38 39
6 7 8 8 9 9 11 12 12 11 11 11 12 13 13 13 14 14 14 14 13 13 13 13 14 14 13 10 7 6 7 10 12 14 17 19 18 17 18 21 20 19 20 21 21 23 25 27 28 28 26 25 25 26 27 27 26 27 30 34 36 37 37
6 8 9 9 9 10 12 12 11 11 11 11 12 13 12 12 13 15 17 17 16 14 15 15 15 15 15 14 11 8 8 11 13 12 14 16 16 16 19 24 24 19 17 18 21 24 26 26 27 28 29 29 27 26 26 27 26 24 26 28 32 34 35
7 8 9 10 11 12 12 11 11 11 12 12 12 13 12 12 13 15 17 18 18 16 18 19 19 17 16 16 15 13 11 12 14 14 15 16 16 16 17 20 24 26 25 22 21 25 27 28 27 28 28 27 27 27 27 28 27 26 25 25 26 30 33
9 9 9 10 12 12 11 11 12 12 12 12 12 12 12 13 15 16 16 17 17 18 20 22 23 21 19 17 17 17 16 14 13 13 14 15 15 16 17 17 17 23 29 30 28 28 29 28 28 28 28 26 25 26 27 27 26 27 28 27 27 28 31
10 10 10 10 11 11 12 13 13 13 13 14 14 14 14 14 15 16 16 16 17 18 21 23 24 24 23 20 19 19 19 17 15 14 13 13 13 15 16 17 17 17 22 28 30 31 32 31 28 28 29 28 26 26 27 26 26 27 28 30 29 29 30
10 11 11 10 10 11 13 14 14 15 15 15 15 15 15 14 15 15 16 16 17 18 20 22 22 23 23 23 22 21 19 18 18 16 14 13 14 14 14 15 17 17 17 20 25 29 33 35 32 29 30 31 31 29 27 26 26 27 29 30 30 30 30
11 11 11 11 11 11 13 15 16 17 17 16 15 16 15 14 14 15 16 16 16 17 19 19 20 20 21 22 24 23 21 19 19 16 13 14 16 15 14 14 14 16 16 16 19 22 27 31 32 30 30 32 34 33 29 26 26 27 28 29 29 30 31
12 13 13 13 13 13 14 15 16 17 17 17 16 16 16 15 15 16 17 16 16 16 16 17 19 19 19 20 22 23 22 20 18 16 15 15 15 15 16 15 13 14 15 15 16 17 18 22 25 25 27 30 33 34 32 29 25 25 26 26 27 27 29
13 14 14 15 16 16 15 15 16 17 18 19 18 17 17 17 17 17 17 16 16 16 16 16 19 20 19 19 19 20 21 19 18 19 18 15 14 14 15 15 14 14 15 15 17 17 16 18 20 22 23 24 26 30 31 30 27 25 24 24 23 23 25
14 15 15 16 17 17 16 16 17 17 19 20 20 20 19 18 18 18 18 17 17 17 17 17 17 19 20 19 18 18 17 16 17 19 18 17 16 16 15 13 14 15 14 15 18 20 20 18 18 21 23 21 19 21 23 24 24 24 24 22 20 21 22
14 15 16 17 17 17 17 18 17 18 19 20 20 21 20 20 20 19 19 18 17 17 18 18 17 18 19 19 17 16 15 15 16 18 20 22 22 21 18 15 14 15 15 13 14 19 22 21 20 20 23 24 23 22 23 22 21 20 20 20 19 19 19
13 15 16 16 17 17 18 18 18 19 19 20 20 21 21 21 21 20 20 19 18 17 18 19 18 17 18 17 16 15 15 16 17 18 21 23 24 24 25 22 18 17 18 16 12 13 16 20 21 21 22 24 26 27 29 30 28 26 24 21 20 18 16
13 14 15 16 17 17 17 18 19 20 21 21 20 20 21 21 21 21 20 19 18 18 19 20 20 18 17 16 16 16 18 18 18 17 18 20 22 25 28 28 25 22 21 20 16 13 11 14 18 19 19 21 22 24 27 30 31 32 31 29 27 24 20
12 13 14 15 15 16 18 18 19 21 22 22 21 20 21 21 21 20 20 19 18 19 19 20 20 19 18 17 17 18 18 18 17 18 18 18 19 22 25 29 30 28 24 22 20 18 15 14 16 17 17 17 17 18 22 25 27 29 30 31 31 31 29
Wind_Direction
121 139 182 200 205 203 196 201 205 194 186 190 192 194 195 194 195 194 192 195 200 201 199 199 197 197 199 202 206 209 210 213 212 210 206 201 200 203 205 205 204 204 199 199 202 197 196 193 190 198 202 201 206 208 202 191 190 192 191 195 197 200 201
108 118 133 178 199 203 196 193 198 195 192 193 193 196 197 197 197 196 194 197 202 205 203 201 200 200 201 203 205 207 208 210 212 212 208 205 203 202 204 205 205 207 202 199 202 201 202 201 194 198 204 202 206 213 209 199 197 194 193 195 193 201 204
94 104 93 71 124 196 204 198 196 196 198 200 200 201 202 201 200 198 196 199 203 206 206 206 205 204 204 205 207 208 207 208 211 211 208 207 207 204 204 205 204 207 206 202 202 201 204 207 203 203 206 202 203 213 214 206 204 201 197 195 192 202 206
78 80 69 49 40 51 154 187 194 196 198 201 201 201 204 203 201 200 200 202 206 207 207 209 208 208 209 208 210 211 209 208 209 211 208 205 207 206 205 206 205 205 207 207 205 201 202 208 209 209 209 206 205 211 214 209 208 207 201 200 198 204 209
65 70 61 47 34 30 49 100 184 203 203 201 196 198 204 205 205 206 206 205 205 205 208 211 209 210 212 211 212 214 213 211 209 210 208 204 205 206 206 208 207 206 207 208 208 207 205 207 209 212 213 212 211 213 214 212 211 211 206 204 205 208 213
51 56 56 53 48 31 39 61 76 216 212 201 192 199 208 208 207 210 212 210 205 202 204 207 206 209 213 213 213 215 215 214 211 211 210 206 205 206 207 209 209 208 208 207 208 211 212 210 209 211 214 214 213 213 216 217 214 214 214 209 210 212 212
47 48 48 50 52 39 40 53 57 64 198 198 190 196 208 211 211 213 214 211 206 205 206 206 204 207 212 213 212 214 218 217 214 213 212 209 209 208 208 210 210 209 208 209 209 209 215 218 212 211 213 211 211 210 214 219 216 214 218 216 215 216 211
51 49 48 46 46 51 49 34 53 81 103 152 182 195 206 210 211 216 219 214 208 209 210 209 208 208 212 213 212 213 217 219 217 215 214 210 211 211 210 212 213 210 207 209 211 209 212 218 216 213 213 211 212 210 209 217 221 215 216 221 221 219 214
54 52 49 47 47 53 56 42 62 100 104 110 121 167 207 208 206 210 218 218 215 214 212 211 211 211 211 213 215 215 216 217 215 217 217 211 210 212 211 212 215 215 211 210 212 213 213 214 215 217 218 216 217 216 211 214 221 219 214 218 223 221 215
54 52 50 50 49 48 52 57 74 102 109 114 105 98 175 192 195 205 212 214 220 224 219 213 211 211 210 211 214 216 217 217 213 214 215 211 210 212 211 211 213 216 218 214 212 215 217 215 212 216 222 222 221 225 223 218 221 223 218 217 222 223 218
58 54 51 49 48 50 55 63 68 64 68 102 111 106 131 151 157 163 186 214 229 233 225 215 210 207 206 209 210 209 213 217 213 210 211 211 211 212 212 212 212 214 218 217 213 214 217 219 215 213 220 225 225 228 230 226 225 226 223 220 221 224 222
62 57 53 49 47 49 56 64 69 62 49 48 68 113 136 144 161 169 149 147 238 238 229 222 216 207 204 208 210 206 208 215 214 210 211 212 213 214 214 214 214 214 216 217 215 213 215 219 219 217 220 226 228 229 231 231 229 229 227 223 221 224 224
69 62 55 52 49 46 49 55 64 70 64 53 48 75 149 164 178 194 209 217 218 242 235 224 217 210 207 209 208 206 209 213 214 213 212 213 214 214 216 217 216 216 216 217 217 216 215 216 220 223 225 228 229 228 229 232 231 231 231 226 220 221 225
73 67 59 54 50 46 44 43 48 57 64 66 65 69 117 198 202 186 226 228 220 229 246 225 210 209 217 217 213 213 214 214 215 215 213 214 216 216 216 218 219 218 218 218 219 218 218 218 218 223 226 229 230 228 226 231 233 232 232 229 224 220 222
66 63 59 54 48 45 44 41 39 41 47 57 69 78 83 111 182 189 192 214 221 232 247 250 230 214 219 226 222 218 217 214 215 217 215 215 217 218 218 218 219 221 220 220 221 221 221 221 220 222 224 226 230 230 225 226 231 233 232 230 228 224 222
57 56 54 52 48 44 41 39 35 34 36 41 49 63 75 82 96 134 176 193 214 226 236 260 260 225 215 225 228 228 228 222 217 216 216 216 216 218 221 220 219 222 222 222 223 224 224 224 223 223 224 224 228 231 228 224 226 232 234 233 231 229 226
51 49 48 47 44 40 38 37 33 29 29 30 34 43 54 64 67 69 106 184 210 222 233 254 257 235 222 225 229 234 237 231 225 220 216 218 218 219 222 224 222 222 224 224 225 225 226 226 225 225 225 226 226 228 230 227 226 230 236 236 234 232 231
52 44 43 41 39 36 34 34 30 27 25 23 23 28 38 47 52 53 56 86 203 224 252 259 249 241 240 237 234 238 240 237 234 228 222 221 223 223 225 227 227 224 223 224 225 226 226 226 226 226 226 228 228 228 229 231 230 232 236 240 238 235 233
53 44 41 38 35 32 30 30 27 24 22 22 21 19 23 32 38 41 42 43 43 346 295 287 261 246 245 245 242 244 248 247 240 236 232 227 225 226 227 229 230 228 226 225 225 226 227 228 229 229 228 228 229 229 230 232 234 236 238 241 242 240 236
48 45 40 37 34 30 27 24 23 22 20 19 20 18 15 20 26 27 28 27 23 18 9 350 305 256 246 247 247 250 264 266 250 241 241 236 228 227 227 227 231 232 230 228 227 227 228 230 232 233 233 233 232 231 232 233 235 240 243 245 245 243 240
51 47 39 33 30 27 25 20 15 15 16 15 15 14 12 13 16 16 17 16 13 12 11 3 351 309 257 251 250 251 265 282 275 256 247 243 238 235 233 230 232 235 234 233 232 231 231 233 234 236 238 240 239 236 235 234 234 238 243 247 249 248 245
50 45 38 31 24 20 19 16 12 9 8 9 9 8 8 8 10 12 11 11 10 10 7 359 351 345 312 270 253 250 254 265 276 275 266 255 246 243 243 239 238 241 241 240 239 238 238 238 237 238 240 242 242 241 239 238 237 237 240 244 248 250 250
40 34 30 23 15 14 11 4 2 2 2 2 0 1 0 359 4 7 6 6 7 6 4 359 352 348 342 318 282 266 259 259 263 268 273 272 263 258 255 249 246 247 247 247 247 247 248 247 245 245 244 243 243 243 242 241 239 240 242 244 246 249 251
27 21 18 7 1 3 0 354 353 352 354 354 350 352 355 350 351 357 358 357 359 359 357 355 350 350 352 346 323 298 283 276 271 267 270 273 274 278 276 263 254 251 251 254 254 253 253 251 250 250 248 247 248 247 247 246 244 243 245 247 248 250 252
8 5 4 359 355 352 345 345 348 346 345 345 341 344 348 343 339 345 348 346 350 351 345 342 344 345 346 349 348 332 319 313 301 289 287 285 282 283 279 270 264 257 252 252 253 252 252 250 249 248 245 245 248 248 249 251 250 249 250 251 252 253 253
1 354 350 347 347 344 340 341 341 339 337 336 334 336 337 333 332 335 336 337 342 343 336 332 333 334 335 341 344 342 347 343 332 329 333 325 312 299 281 271 270 268 260 256 255 254 254 252 252 251 247 245 246 248 250 252 252 255 258 258 258 259 258
2 355 343 338 339 339 338 335 332 331 330 329 329 330 329 326 326 326 326 330 334 333 330 328 328 326 325 329 334 337 341 339 334 339 351 350 340 325 303 284 273 265 261 262 261 257 256 254 254 254 251 249 249 249 250 251 252 255 258 260 262 264 263
357 354 345 338 337 337 334 330 328 326 325 325 324 322 318 315 316 318 318 321 324 323 321 322 324 325 322 321 324 328 331 334 336 339 344 352 353 339 322 311 294 272 261 261 262 261 260 260 260 258 255 251 249 249 250 252 253 253 254 256 258 260 262
347 345 344 338 333 333 330 327 326 323 321 322 319 315 312 309 308 309 309 310 314 315 316 317 317 318 320 322 321 319 322 328 333 332 330 335 346 347 334 322 314 297 272 263 264 264 261 260 263 264 261 257 252 250 249 251 252 253 254 256 257 257 258
336 334 336 334 331 331 327 324 322 318 318 318 317 316 314 309 305 302 301 303 307 308 311 314 313 312 315 320 320 318 321 323 321 327 332 325 324 338 341 325 315 310 294 274 270 268 263 259 260 262 263 263 260 255 250 248 251 254 256 258 260 261 263
325 325 327 328 327 326 323 320 317 316 315 315 315 315 313 308 303 298 296 298 300 303 308 311 309 308 313 318 319 319 321 320 318 324 328 317 313 323 335 331 318 311 303 283 270 269 266 260 258 261 264 265 263 261 258 253 251 252 253 254 258 262 266
317 319 321 323 323 322 319 316 314 313 312 311 311 310 309 305 300 294 293 295 295 297 301 304 303 303 309 315 317 318 319 320 320 317 309 308 317 323 326 326 320 313 307 289 270 268 269 263 258 259 266 269 267 266 264 259 254 251 250 251 256 262 267
311 314 316 317 319 319 317 313 311 310 308 307 306 305 304 304 300 295 291 290 290 291 291 294 298 301 303 308 313 316 318 316 314 313 310 311 318 318 315 316 315 314 314 303 283 271 266 263 260 259 266 273 272 268 267 264 259 254 252 253 259 267 272
306 309 311 313 314 316 315 311 308 307 306 304 304 304 303 300 298 297 293 288 285 285 284 287 293 297 299 303 308 313 315 312 310 314 314 311 307 305 307 312 310 306 310 315 305 288 274 267 265 264 266 271 273 272 271 270 266 259 255 256 261 268 274
303 305 308 310 310 311 311 309 308 306 304 303 301 301 299 296 294 294 293 289 284 281 281 282 286 291 296 302 308 311 310 307 308 311 311 309 307 303 299 295 293 291 293 305 316 306 290 277 273 275 275 272 270 271 272 274 274 267 259 257 259 264 269
300 302 305 306 307 307 307 308 308 307 305 303 301 298 295 294 293 293 292 289 284 279 278 278 281 288 295 301 306 305 303 305 308 309 310 311 310 306 299 292 287 289 293 298 309 314 302 285 280 288 290 281 272 269 268 270 274 275 271 268 266 265 265
300 302 302 304 305 305 306 307 308 308 307 304 301 296 292 290 290 290 291 289 285 279 275 275 277 282 289 295 300 301 302 306 308 308 309 309 307 306 305 302 296 295 299 302 302 302 298 288 286 294 300 294 285 277 271 270 272 274 274 272 269 266 262
301 300 301 302 304 304 306 307 308 310 310 307 302 296 291 288 287 288 288 287 283 279 273 270 272 276 280 287 295 301 304 306 307 307 307 306 305 306 307 307 305 303 301 301 300 296 297 300 302 302 302 300 299 294 284 277 275 274 273 271 270 267 265